EHI
0 0 0 0 0 0 0 0 0 0 1 3 4 4 4 3 3 4 6 7 8 10 11 7 5 5 5 5 7 9 10 10 11 11 12 12 10 8 5 3 2 1 0 0
0 0 0 0 0 0 0 0 0 0 1 3 4 4 4 3 3 4 4 4 5 7 7 7 6 6 5 5 7 9 10 10 11 11 11 10 8 6 4 2 1 0 0 0
0 0 0 0 0 0 0 0 1 1 2 2 2 3 2 1 2 3 2 2 2 3 5 7 8 8 8 7 7 8 9 10 10 10 10 8 5 3 2 1 0 0 0 0
0 0 0 0 0 0 0 1 2 2 1 1 0 1 1 1 2 3 2 1 1 2 5 8 10 10 10 9 7 7 8 8 7 7 7 6 3 1 2 2 1 0 0 0
0 0 0 0 0 0 0 1 2 1 0 0 0 0 0 1 3 3 2 0 1 2 4 7 8 9 10 9 6 4 5 6 5 4 4 4 3 2 3 3 2 1 0 0
0 0 0 0 0 0 0 1 1 1 0 0 0 0 0 2 3 3 2 0 1 1 2 4 5 7 8 7 4 2 2 3 3 3 3 3 4 4 3 3 3 2 0 0
0 0 0 0 0 0 0 0 0 0 0 0 0 0 1 2 3 3 2 1 1 1 1 2 4 5 5 5 3 1 0 1 2 3 4 4 5 5 4 3 2 1 0 1
0 0 0 0 0 0 0 0 0 0 0 0 0 0 1 2 3 3 2 1 1 1 0 1 4 5 4 3 2 1 0 0 1 3 4 4 4 4 3 2 1 0 0 1
0 0 0 1 0 0 0 0 0 0 0 0 0 0 0 1 2 2 1 0 1 1 0 1 4 4 3 3 3 1 1 0 1 3 3 3 3 2 1 1 0 0 0 1
0 0 0 0 0 0 0 0 0 0 0 0 0 0 0 1 1 2 1 0 0 0 0 1 4 4 3 3 3 2 1 0 0 1 1 1 1 1 0 0 0 0 0 0
0 0 0 0 0 0 0 0 0 0 0 0 0 0 0 1 1 1 1 0 0 0 0 1 3 3 3 3 3 3 1 0 0 0 0 0 0 0 0 0 0 0 0 0
0 0 0 0 0 0 0 0 0 0 0 0 0 0 0 0 0 0 0 0 0 0 0 1 3 3 3 3 3 2 1 1 0 0 0 0 0 0 0 0 0 0 0 0
0 1 1 0 0 0 0 0 0 0 0 0 1 1 1 0 0 0 0 0 0 0 1 2 3 3 3 3 2 1 1 1 0 0 0 0 0 0 0 0 0 0 0 0
1 1 1 0 0 0 0 0 0 0 0 0 1 1 1 0 1 1 0 0 0 1 1 3 3 3 3 2 1 0 1 1 0 0 0 0 0 0 0 0 0 0 0 0
0 1 1 0 0 0 0 0 0 0 0 0 0 0 0 1 2 2 1 0 1 2 3 3 3 3 2 1 0 0 0 0 0 0 0 0 0 0 0 0 0 0 0 0
0 0 0 0 0 0 0 0 0 0 0 0 0 0 0 1 2 2 1 0 1 2 3 2 1 1 1 1 0 0 0 0 0 0 0 0 0 0 0 0 0 0 0 0
0 0 0 0 0 0 0 0 0 0 0 0 0 0 0 0 1 2 2 1 1 2 3 1 0 0 0 0 0 0 0 0 0 0 0 0 0 0 0 0 0 0 0 0
0 0 0 0 0 0 0 0 0 0 0 0 0 0 0 0 1 2 3 2 1 2 2 1 0 0 0 0 0 0 0 0 0 0 0 0 0 0 0 0 0 0 0 0
0 0 0 0 0 0 0 0 0 0 0 0 0 0 0 0 1 2 3 2 1 1 2 1 0 0 0 0 0 0 0 0 0 0 0 0 0 0 0 0 0 0 0 0
0 0 0 0 0 0 0 0 0 0 0 0 0 0 0 0 0 1 2 2 1 1 1 1 0 0 0 0 0 0 0 0 0 0 0 0 0 0 0 0 0 0 0 0
0 0 0 0 0 0 0 0 0 0 0 0 0 0 0 0 0 0 1 1 1 1 1 0 0 0 0 0 0 0 0 0 0 0 0 0 0 0 0 0 0 0 0 0
0 0 0 0 0 0 0 1 1 1 0 0 0 0 0 0 0 0 0 0 1 1 0 0 0 0 0 0 0 0 0 0 0 0 0 0 0 0 0 0 0 0 0 0
0 0 0 0 0 0 0 1 2 1 0 0 0 0 0 0 0 0 0 0 0 0 0 0 0 0 0 0 0 0 0 0 0 0 0 0 0 0 0 0 0 0 0 0
1 0 0 0 0 0 0 1 2 2 0 0 0 0 0 0 0 0 0 0 0 0 0 0 0 0 0 0 0 0 0 0 0 0 0 0 0 0 0 0 0 0 0 0
2 1 0 0 0 0 0 1 1 1 0 0 0 0 0 0 0 0 0 0 0 0 0 0 0 0 0 0 0 0 0 0 0 0 0 0 0 0 0 0 0 0 0 0
2 1 0 0 0 0 0 0 0 0 0 0 0 0 0 0 0 0 0 0 0 0 0 0 0 0 0 0 0 0 0 0 0 0 0 0 0 0 0 0 0 0 0 0
1 0 0 0 0 0 0 0 0 0 0 0 0 0 0 0 0 0 0 0 0 0 0 0 0 0 0 0 0 0 0 0 0 0 0 0 0 0 0 0 0 0 0 0
Wind_Speed
11 13 13 14 11 10 8 8 7 8 8 8 7 7 6 6 5 5 5 5 5 4 2 1 2 2 3 3 2 1 0 0 1 1 1 0 1 1 2 2 2 2 2 2
12 12 11 12 10 7 6 7 7 7 7 7 7 7 7 6 5 5 5 6 5 5 3 1 1 2 2 3 2 1 1 1 1 1 1 0 0 1 1 2 2 2 2 3
11 12 10 6 8 9 8 8 8 7 7 7 7 8 8 6 5 5 5 5 5 5 3 2 1 1 2 3 2 2 2 2 1 1 0 0 1 1 2 2 2 2 2 2
9 10 7 3 7 9 7 8 9 8 8 9 7 7 6 6 6 5 6 5 5 5 4 3 1 0 1 2 1 2 3 2 1 0 0 0 1 1 2 2 2 2 2 2
6 8 7 4 8 10 8 6 8 8 8 8 7 6 4 7 7 5 5 4 3 3 3 3 2 1 1 1 1 2 3 1 1 0 0 1 1 1 1 2 2 2 2 2
8 9 8 6 9 10 7 2 10 11 10 9 8 6 5 6 6 5 5 4 3 3 3 3 2 1 1 1 2 3 3 2 1 0 1 1 1 1 2 2 2 2 2 2
8 8 4 7 11 9 6 6 11 10 8 8 7 6 4 4 5 4 4 3 3 3 3 3 2 2 1 1 2 3 3 1 1 0 0 1 0 1 2 2 3 3 3 2
6 7 3 10 10 8 6 7 8 8 8 7 5 4 4 5 4 3 3 2 3 3 3 2 2 1 2 2 2 2 2 1 0 0 1 1 0 1 2 2 3 2 2 3
5 5 6 6 5 5 6 7 7 7 6 6 5 4 4 4 3 3 2 2 3 3 3 2 2 2 2 2 2 2 1 1 1 0 0 1 1 2 2 2 2 2 2 2
7 6 8 7 6 7 6 7 8 7 6 5 6 5 4 3 3 3 3 2 3 3 3 2 1 2 2 2 2 2 1 1 1 1 1 1 1 1 1 1 1 2 3 3
8 7 8 8 9 9 8 8 8 6 6 6 6 5 4 2 2 2 2 2 2 2 3 3 2 2 2 2 2 1 1 2 2 2 1 1 1 1 2 1 1 2 3 3
7 8 8 9 9 10 8 7 7 6 6 6 6 5 4 2 1 2 2 1 2 3 3 3 3 2 2 2 2 2 2 2 2 2 1 2 1 1 1 3 3 3 3 3
7 9 9 10 9 8 7 7 7 5 6 6 6 5 3 2 2 2 2 2 3 3 3 3 3 2 2 2 2 2 2 2 3 2 1 1 1 1 1 2 4 6 6 6
7 9 10 9 8 7 8 7 6 5 5 5 5 4 3 2 2 3 3 3 3 3 3 3 3 2 2 2 1 1 2 3 3 2 2 2 2 2 2 1 1 2 5 8
8 9 10 9 7 7 7 6 5 5 4 4 4 3 3 3 3 4 3 3 3 3 3 3 2 2 2 2 1 2 3 2 1 2 2 2 2 2 2 2 2 2 1 1
10 10 9 8 7 7 7 6 5 5 4 4 4 3 3 3 3 3 3 3 3 3 2 2 2 2 2 2 1 2 2 2 3 3 3 2 3 2 2 2 2 2 2 2
9 9 9 9 8 7 7 7 6 5 4 4 4 3 3 3 3 3 3 3 2 2 2 2 2 3 3 2 2 3 2 2 3 3 3 3 2 3 3 3 2 2 2 2
8 9 9 9 9 8 8 8 6 5 4 4 4 4 4 4 4 3 3 3 2 2 1 1 2 3 4 2 2 3 2 1 2 2 2 2 3 3 3 3 3 4 3 2
8 9 9 9 9 8 8 7 6 5 5 5 5 4 4 4 3 3 2 3 3 2 1 1 1 3 3 2 3 3 3 2 2 1 2 2 3 2 3 3 3 3 4 4
8 8 9 9 9 7 7 7 6 5 5 5 5 4 4 3 3 3 3 3 2 1 1 0 1 3 3 3 4 4 2 2 2 1 1 2 2 2 2 3 3 3 3 4
9 9 9 8 8 8 7 7 6 6 6 6 5 5 4 4 4 4 3 3 1 1 1 1 2 3 3 3 4 4 3 2 2 1 2 2 2 2 2 2 2 3 4 4
9 9 9 8 7 8 7 6 6 7 6 6 6 5 5 4 5 4 3 2 2 2 2 2 3 2 3 4 4 3 3 2 1 1 1 2 2 2 2 2 3 3 3 4
8 8 8 8 7 8 8 7 7 6 6 6 6 5 5 4 4 4 3 3 3 3 3 2 1 1 3 5 5 3 2 2 2 1 1 2 1 1 2 2 3 3 3 4
9 8 7 7 7 7 7 7 6 6 6 6 6 5 4 4 4 4 3 4 4 4 3 2 4 3 5 5 4 3 2 2 1 1 1 2 2 2 2 2 2 3 3 4
9 8 7 7 6 5 6 7 7 6 7 5 5 5 5 5 4 3 3 4 5 5 4 5 6 6 5 4 4 3 1 0 0 1 1 1 1 2 2 2 3 3 3 4
8 6 6 6 5 5 6 6 6 5 5 5 5 4 4 3 4 4 3 5 6 5 5 4 5 5 5 4 4 2 1 1 1 1 1 1 1 2 2 3 3 3 3 4
7 5 4 5 5 6 6 6 6 5 5 5 5 4 4 4 4 5 5 4 5 5 4 4 5 5 4 4 3 2 1 1 1 1 0 1 1 1 2 2 2 2 3 3
Wind_Direction
303 301 299 300 308 314 313 312 308 316 335 357 1 4 8 14 12 8 4 4 358 354 5 358 344 351 351 333 331 316 298 217 228 235 247 278 300 316 316 317 318 322 322 323
293 289 293 303 321 327 330 340 338 345 354 8 2 6 9 7 3 355 355 355 355 353 346 346 329 337 335 314 315 292 258 244 224 216 221 254 279 335 335 332 336 345 339 336
299 307 303 314 357 360 0 2 354 357 358 1 2 2 359 356 359 356 352 351 354 344 342 337 336 338 316 309 327 310 279 255 228 222 260 258 318 2 355 346 347 343 333 346
298 308 299 9 11 2 357 8 13 12 8 3 4 5 5 13 8 360 349 351 354 346 347 347 335 298 314 313 315 301 289 262 256 111 153 333 11 8 1 340 329 328 328 327
298 305 301 331 3 353 339 1 24 9 359 349 350 345 3 12 360 353 355 360 360 352 346 344 350 5 319 298 307 293 296 303 3 341 94 20 19 5 353 336 335 327 314 307
285 294 304 356 356 338 316 10 13 360 352 347 345 339 351 356 348 5 19 24 14 352 354 357 10 8 319 324 322 306 311 309 321 35 51 39 27 351 327 313 306 304 313 308
286 288 304 6 0 345 343 353 344 346 350 350 352 348 349 351 0 23 27 16 356 348 356 2 5 350 325 324 314 305 306 306 12 28 224 149 50 314 300 300 306 302 306 301
301 295 326 5 4 4 345 329 334 342 349 353 356 1 355 353 356 3 11 356 338 343 353 1 1 326 297 306 306 309 312 332 30 315 301 8 253 276 285 291 301 297 300 300
314 319 339 353 6 350 332 326 332 334 341 338 337 338 339 339 344 346 349 342 326 334 340 348 343 310 298 295 295 296 313 351 332 305 266 292 282 283 289 285 297 320 326 325
305 314 329 337 341 340 333 330 328 333 334 327 327 328 333 334 341 342 339 329 325 331 325 320 308 293 294 278 270 276 316 304 270 251 252 264 277 286 297 318 340 338 341 338
292 307 313 318 332 332 331 328 330 336 331 325 320 320 320 315 320 321 317 315 318 310 308 303 291 282 277 264 248 265 288 264 263 260 245 257 247 274 294 333 323 305 322 329
299 318 313 312 313 315 319 319 323 326 323 317 313 310 305 305 302 296 293 285 297 291 294 292 284 268 258 253 238 235 259 263 266 258 239 243 242 275 241 229 242 245 255 277
301 308 304 300 303 309 310 308 309 308 305 305 307 304 305 315 294 291 289 286 287 283 283 283 280 269 255 264 251 237 254 267 274 277 269 249 265 263 258 246 250 253 257 261
310 307 300 303 306 310 309 308 303 298 299 304 307 307 312 313 301 294 292 290 282 275 272 265 264 267 254 247 244 238 260 258 262 277 287 286 282 275 275 283 279 258 243 242
308 304 299 303 299 295 298 297 293 293 299 309 301 295 302 302 295 296 291 284 280 272 271 270 273 286 274 255 226 250 271 275 277 300 301 301 294 297 317 318 315 323 319 255
300 299 299 296 293 292 293 294 293 292 298 303 295 293 293 285 285 290 285 283 282 276 278 281 286 292 275 248 224 250 243 246 260 277 288 293 300 320 324 319 331 349 357 5
293 295 300 298 295 292 294 295 292 287 287 289 289 288 280 274 275 279 280 287 278 266 278 288 294 294 283 245 238 262 253 208 214 252 280 309 318 314 313 329 350 349 4 39
291 288 288 291 292 292 290 288 288 285 279 278 276 269 266 267 265 265 271 280 263 260 285 300 306 297 293 294 278 281 280 262 233 261 280 301 314 314 334 347 357 0 350 338
292 287 288 289 290 287 287 290 285 281 280 278 273 263 261 265 260 252 259 263 254 245 265 322 332 297 295 298 289 269 268 270 259 265 288 299 294 323 352 355 4 8 344 337
299 298 294 290 288 287 284 285 284 274 270 269 263 254 255 258 256 256 253 253 251 258 198 175 257 268 270 267 277 274 273 283 288 292 312 324 335 351 350 355 358 1 346 338
299 295 294 294 297 293 284 281 280 270 263 260 256 250 247 249 250 248 247 240 199 207 223 168 237 255 265 277 253 266 272 278 287 305 326 331 335 347 351 355 353 354 354 355
298 295 296 296 296 295 291 280 275 267 258 257 254 250 239 238 243 241 232 235 208 173 216 218 230 254 287 285 265 272 285 285 290 316 321 321 332 350 355 360 3 4 0 0
297 295 296 296 293 289 287 281 274 270 254 250 248 242 235 240 243 233 219 207 198 180 218 234 227 250 277 268 270 266 273 285 285 285 293 303 323 5 9 4 8 2 358 1
296 294 294 293 287 282 284 283 277 271 256 248 236 226 227 233 238 227 203 179 171 174 213 192 192 221 249 257 267 265 256 254 254 264 294 332 355 5 10 12 6 5 3 0
294 292 289 286 281 276 277 275 271 263 256 241 227 219 226 229 229 214 188 165 168 182 198 198 210 218 237 254 258 257 254 295 10 340 350 354 354 4 10 20 20 15 16 17
288 283 281 277 276 272 266 263 259 253 252 247 229 220 223 221 210 201 183 179 188 207 215 197 200 213 233 245 247 241 200 146 159 211 315 343 24 24 18 16 20 21 27 35
278 276 272 267 264 261 262 257 256 256 251 256 249 225 220 217 213 203 193 193 192 206 221 213 205 205 217 229 228 214 212 185 145 131 138 36 37 34 31 32 32 33 29 39